SCP
3 3 3 2 2 3 3 3 3 2 3 3 2 2 2 2 2 2 3 3 3 4 3 3 3 3 2 1 1 0 0 1 0 0 0 0 0 0 1 1 1 1 1
2 2 3 2 2 3 3 3 2 2 2 2 2 2 2 2 2 2 2 2 3 3 4 4 3 3 3 2 1 1 1 1 0 0 0 0 0 0 1 1 1 1 1
2 2 2 3 3 3 2 2 2 3 2 2 2 2 2 2 2 2 2 2 2 2 3 3 4 3 3 2 1 1 1 0 0 0 0 0 0 0 0 0 0 0 0
3 3 3 3 3 3 2 2 3 3 3 3 3 3 3 3 2 2 2 1 1 2 2 3 3 3 3 2 2 1 1 1 0 0 0 0 0 0 0 0 0 0 0
4 4 4 3 3 3 3 3 4 4 4 4 4 4 4 3 3 2 2 1 1 2 2 2 2 2 3 2 2 1 1 1 0 0 0 0 0 0 0 0 0 0 0
5 5 5 4 4 4 4 4 5 5 4 4 4 4 4 4 3 2 2 2 2 2 2 2 2 2 2 2 2 1 1 1 1 1 0 0 0 0 0 0 0 0 0
6 6 6 5 5 5 6 7 7 6 6 5 5 5 5 4 3 3 2 2 2 2 2 2 2 2 2 2 2 2 1 1 1 1 1 1 0 0 0 0 0 0 0
6 7 7 6 5 6 8 9 10 9 8 8 7 6 6 5 5 4 4 3 3 2 2 2 2 2 2 2 2 2 2 1 1 1 1 1 1 0 0 0 0 0 0
5 6 7 6 6 7 9 11 11 11 11 10 9 8 7 7 7 6 5 5 4 3 2 2 2 3 3 2 2 2 2 1 1 1 1 1 1 1 1 1 1 0 0
7 8 8 8 8 9 10 10 10 11 12 13 12 10 8 8 9 8 7 6 5 4 3 3 3 3 3 2 2 2 2 2 2 1 1 1 1 1 1 1 1 1 1
12 12 12 12 12 12 10 9 9 11 13 15 15 13 10 9 9 9 9 8 7 5 4 4 4 4 3 2 2 2 2 2 2 2 1 1 2 2 1 1 1 1 1
14 13 13 13 12 10 9 7 7 9 13 16 17 15 12 10 9 10 10 10 8 7 6 6 6 5 4 3 2 2 3 3 3 2 2 2 3 2 2 1 1 1 2
13 12 9 8 8 7 6 5 5 7 12 16 17 16 13 10 9 9 10 11 10 9 8 8 7 6 4 3 2 2 2 3 3 3 3 3 4 3 2 2 2 3 3
13 11 7 5 6 6 5 5 5 7 10 13 15 13 11 9 8 8 9 11 10 9 9 9 7 6 4 4 3 2 2 3 3 4 4 4 4 3 2 2 3 4 5
12 10 6 5 5 6 6 5 5 6 7 8 9 8 7 6 6 5 6 8 8 8 8 8 6 5 4 3 3 3 3 2 3 3 4 4 4 3 3 3 4 5 5
8 7 5 5 5 5 6 6 6 5 5 5 4 4 5 4 4 4 4 5 5 5 6 6 5 4 3 2 2 2 2 2 3 3 3 3 3 3 3 3 3 4 4
4 4 4 5 6 6 6 7 6 6 5 4 3 4 4 4 4 3 3 3 3 3 4 4 4 3 2 2 1 2 2 2 2 2 2 2 2 2 2 2 2 2 2
2 2 3 6 7 7 6 7 7 6 5 4 4 4 4 4 3 2 3 3 3 3 3 3 3 2 2 2 1 1 2 3 3 2 2 1 1 1 1 1 1 1 1
2 2 3 6 8 7 6 7 7 7 6 5 4 3 3 3 2 2 2 2 3 3 3 3 3 3 3 2 2 1 2 3 3 3 2 1 1 1 1 1 1 1 1
2 2 4 7 8 8 6 6 6 6 5 5 5 4 3 3 2 2 2 2 3 3 3 3 3 3 4 3 2 2 2 3 3 3 3 2 1 0 0 0 1 1 1
2 4 7 8 8 7 6 5 5 5 5 5 5 5 4 3 3 2 2 2 3 4 4 4 4 4 5 4 3 2 3 3 4 4 4 3 2 0 0 0 0 0 0
3 5 9 10 8 7 6 5 4 4 5 5 6 6 5 4 4 3 3 3 3 4 4 5 5 5 5 5 5 3 2 3 4 4 4 4 2 0 0 0 0 0 0
4 6 9 10 8 7 6 5 5 5 5 6 6 7 6 5 5 5 4 3 3 4 4 5 5 5 5 5 5 3 1 1 2 3 3 2 1 0 0 0 0 0 0
5 6 9 11 10 8 7 7 7 6 6 6 7 7 7 6 6 6 5 4 4 4 4 4 5 5 5 4 3 2 1 1 1 1 1 1 0 0 1 0 0 0 0
7 9 11 13 13 11 9 9 9 8 8 8 7 7 7 6 6 6 6 5 4 4 4 4 4 4 3 2 2 1 1 0 0 0 0 0 0 1 1 1 0 0 0
10 11 13 14 14 13 11 10 10 10 9 9 8 7 7 7 6 6 6 5 4 4 4 3 3 3 2 1 1 1 0 0 0 0 0 0 0 1 1 0 0 0 0
Wind_Speed
8 8 8 9 8 7 6 5 5 4 3 2 2 2 1 1 1 1 2 2 3 3 2 2 1 1 2 2 2 1 1 1 1 1 2 2 2 1 2 2 2 3 3
8 9 9 9 7 7 7 6 5 5 4 3 2 2 2 1 1 1 1 2 3 3 3 2 2 2 1 1 1 1 1 1 1 2 1 2 3 2 1 1 2 2 2
12 10 10 8 8 8 8 7 6 5 5 4 2 2 2 2 1 1 0 1 2 2 1 2 2 2 2 2 2 2 2 1 1 1 3 2 2 2 3 2 1 1 1
10 11 10 10 10 9 8 6 6 6 5 4 4 4 3 2 2 2 1 1 1 2 2 1 1 2 2 1 2 2 2 2 1 1 1 2 3 1 2 3 2 2 2
13 13 12 12 10 9 8 6 6 5 5 5 5 4 3 2 2 1 1 1 1 1 1 1 1 1 1 1 1 1 1 2 2 1 1 1 1 1 2 2 3 2 2
11 10 9 9 8 7 6 6 6 5 4 5 5 5 5 4 3 2 2 1 1 1 1 1 1 2 1 2 2 2 1 1 1 1 1 1 1 2 2 2 2 2 3
8 8 9 9 8 8 8 7 7 5 5 5 4 4 5 5 4 3 3 2 1 1 2 2 1 2 2 2 2 2 2 1 2 2 2 2 2 2 2 2 2 2 2
8 8 9 9 9 9 8 9 8 6 6 5 4 4 4 3 3 3 3 3 2 2 2 2 2 2 2 2 2 1 2 1 2 2 2 1 2 2 2 2 2 1 2
9 8 7 8 9 9 9 9 9 6 6 6 5 4 4 4 3 2 2 2 2 2 2 2 2 1 1 1 1 1 2 1 1 2 2 1 2 1 1 2 3 3 2
7 7 6 6 6 7 6 7 7 7 6 6 5 5 4 4 3 2 2 2 2 1 1 1 1 1 1 1 1 1 2 1 2 1 1 1 1 1 1 1 1 2 3
8 8 7 6 6 6 6 5 5 5 5 5 4 4 3 3 3 2 2 2 1 2 2 2 2 2 2 1 1 1 2 2 2 2 1 2 1 1 1 1 1 1 2
7 8 7 6 6 6 6 5 5 5 5 5 4 4 3 3 3 2 2 2 2 2 2 2 2 2 2 2 2 2 2 2 2 2 1 2 1 1 1 1 1 1 1
6 6 5 6 6 6 6 6 5 5 5 5 5 4 3 3 3 3 3 2 2 1 1 1 1 2 2 2 3 3 2 3 3 2 2 2 1 1 1 1 1 1 1
6 6 5 5 5 5 6 6 5 4 5 5 5 5 4 4 3 3 2 2 2 2 1 1 2 2 2 2 3 2 2 2 2 2 2 2 2 2 2 1 1 1 1
6 6 5 4 4 4 4 5 5 5 5 5 5 4 4 3 3 2 2 2 2 2 2 2 1 2 2 2 2 2 2 2 2 1 1 2 2 2 2 1 1 1 1
6 5 5 5 5 5 5 5 5 5 5 5 5 4 4 3 3 3 2 2 2 2 2 2 2 2 2 3 3 2 2 2 2 2 2 2 1 1 1 1 2 2 3
4 4 5 5 5 5 6 5 5 5 5 5 5 4 4 4 4 4 2 2 2 2 2 2 2 2 4 4 3 4 3 2 2 2 2 2 2 1 1 1 2 2 3
4 3 3 3 3 4 4 5 4 4 4 4 4 4 4 4 4 4 4 3 2 2 3 3 3 2 4 3 3 3 2 2 3 3 4 3 3 2 1 1 2 2 2
4 4 4 4 3 3 4 4 4 4 4 4 4 4 4 4 4 4 4 4 3 3 3 2 2 3 3 3 3 2 1 2 3 3 2 3 2 3 1 0 1 3 4
3 2 2 3 3 3 3 4 4 4 4 5 4 4 4 4 4 4 4 3 3 3 2 2 2 2 2 3 2 1 1 1 2 2 2 2 3 3 1 1 1 2 3
2 3 3 3 3 3 4 4 4 5 5 4 3 3 4 4 4 3 3 2 2 2 1 1 1 1 1 1 1 1 0 1 1 2 2 2 2 2 3 2 3 4 3
1 2 2 2 2 3 4 3 4 5 4 3 3 3 3 3 2 2 2 2 2 2 2 1 0 0 1 0 1 1 1 1 1 2 2 2 2 3 3 2 3 3 1
1 1 2 2 1 2 4 4 4 3 3 3 3 2 2 1 2 3 3 2 2 2 2 1 1 1 1 1 1 2 1 1 1 2 3 3 3 3 2 3 3 1 0
1 1 1 1 1 2 2 3 3 2 3 3 2 2 2 1 1 1 2 2 2 2 2 2 2 1 1 1 1 1 1 2 1 1 2 3 2 2 2 2 1 1 1
1 1 2 1 1 1 1 2 2 3 3 2 2 1 2 2 1 0 1 2 2 4 4 3 3 3 2 3 3 1 1 1 1 0 1 1 1 1 1 1 1 1 1
2 2 1 1 1 0 1 1 1 3 4 2 2 2 2 2 2 1 1 2 0 0 2 3 3 2 3 3 3 2 2 1 1 1 0 0 1 1 1 1 1 1 1
Wind_Direction
165 151 154 157 147 143 145 149 144 144 131 116 117 118 124 127 124 138 147 145 155 160 149 156 162 149 160 198 199 171 189 224 158 67 340 321 291 238 226 224 223 228 225
154 160 163 160 156 157 158 158 158 156 157 155 152 150 144 142 137 117 116 153 164 158 154 155 170 166 167 205 207 162 170 213 157 138 102 343 338 326 264 215 209 222 216
170 173 169 167 162 167 170 169 170 166 164 154 129 107 82 69 64 82 152 197 174 167 162 172 170 173 171 193 210 186 172 202 245 167 152 155 241 299 314 285 253 232 225
172 174 172 172 173 176 175 171 170 167 165 152 143 143 144 160 195 192 194 194 166 165 165 169 181 186 177 186 220 195 176 164 218 267 205 186 178 177 298 313 299 270 242
176 179 178 176 176 173 170 170 165 166 161 153 152 148 151 167 167 156 165 196 228 199 191 181 187 193 187 195 208 203 183 174 187 203 222 205 185 168 179 275 305 316 288
176 176 172 162 163 163 157 159 160 168 166 158 152 152 154 155 149 157 179 217 260 268 252 222 210 207 203 204 202 201 197 190 187 194 189 180 188 204 185 227 265 282 286
164 167 165 164 163 161 163 166 165 173 176 165 164 164 163 164 172 180 190 193 211 242 255 238 220 221 218 213 206 203 216 204 203 208 215 210 215 200 185 193 244 270 286
159 168 171 166 165 168 169 172 175 177 175 170 173 171 166 167 174 181 179 190 207 220 230 222 225 227 217 211 200 212 232 221 224 236 227 224 243 214 190 188 189 266 302
158 162 164 165 168 173 179 177 176 176 176 175 172 172 172 171 176 181 176 195 209 213 216 212 215 226 216 210 194 215 243 246 245 250 244 236 256 241 219 198 180 178 234
151 153 160 164 163 169 172 171 169 174 175 174 178 179 182 183 178 172 186 197 214 218 199 219 220 217 203 200 197 224 243 237 259 240 251 267 275 282 263 222 202 182 190
157 161 165 160 154 149 147 158 166 165 166 171 174 173 177 179 170 176 196 199 209 206 202 208 207 210 210 206 188 224 222 221 259 270 251 266 271 277 280 259 205 205 187
162 163 159 149 148 153 153 161 172 173 174 170 164 169 171 165 167 186 201 191 205 224 215 206 208 216 218 218 203 220 235 222 236 255 258 271 283 292 271 251 250 239 217
149 148 153 157 161 164 166 168 176 182 180 164 160 163 166 173 184 196 201 193 198 218 211 192 209 225 229 233 231 219 223 228 226 227 227 242 232 274 283 266 273 260 265
131 133 151 167 169 168 171 165 168 172 172 168 167 174 185 189 192 194 194 193 191 193 201 205 219 231 237 243 233 218 227 234 243 238 229 222 206 217 235 258 259 249 251
130 135 143 149 155 159 170 174 165 167 169 164 169 184 185 176 173 181 196 202 205 210 211 214 230 241 236 244 224 221 219 221 231 242 242 223 205 208 224 238 234 213 219
143 144 149 146 156 164 174 179 170 169 164 165 175 175 169 170 177 185 191 200 218 244 233 223 231 248 260 267 254 233 236 229 211 234 260 254 242 250 276 268 256 220 211
128 147 165 176 178 176 170 171 176 167 168 173 178 182 180 183 195 199 195 218 232 246 253 236 236 252 259 259 251 239 233 238 232 223 229 250 263 259 250 305 326 294 253
140 160 173 175 174 167 166 171 169 167 173 176 181 189 188 197 203 195 198 216 226 233 244 237 227 238 266 268 255 253 247 241 242 226 213 215 239 251 253 284 322 308 290
157 169 178 175 161 157 167 161 164 170 174 183 192 196 193 196 195 200 210 213 210 226 238 238 223 233 263 261 254 249 235 241 253 241 221 212 228 247 245 242 298 308 305
145 148 142 135 151 171 151 147 165 172 187 196 197 192 189 192 201 212 215 211 203 214 218 220 225 225 253 265 265 252 190 250 276 285 268 244 237 247 238 195 216 263 283
135 140 148 157 179 175 149 159 182 202 206 198 193 193 199 204 207 209 207 206 206 199 201 207 244 251 262 269 270 277 230 221 251 268 271 261 251 249 248 233 229 239 258
97 121 136 154 181 169 156 169 213 215 197 188 191 201 207 216 207 194 210 210 195 185 198 202 233 316 325 321 286 265 260 217 212 251 261 263 262 251 250 255 250 255 285
130 126 141 152 178 176 161 181 225 205 180 181 199 207 199 204 190 187 195 197 190 186 192 182 196 243 308 306 285 261 270 277 244 265 270 277 272 265 256 254 248 248 174
152 148 138 167 214 204 185 199 208 176 163 181 201 195 181 192 200 187 186 184 184 183 189 188 194 198 216 282 311 317 333 341 339 319 318 315 303 283 262 278 281 222 199
141 130 137 169 220 205 210 218 184 152 158 180 193 190 186 177 176 175 205 196 200 195 191 197 187 182 209 236 220 213 247 253 250 20 18 5 357 353 343 326 308 284 235
117 97 84 75 317 315 274 287 208 163 163 178 196 200 199 189 176 154 36 12 311 199 187 198 187 188 200 193 200 224 243 266 156 122 127 292 295 282 283 285 293 301 293